Showing default

SATORO-T2, 60477

Orbit data source: Space-Track

SATORO-T2, 60477 is a payload satellite owned by Satoro (SG) in SSO that was launched on Fri, 16 Aug 2024 UTC via an FALCON 9 launch vehicle from the Air Force Western Test Range (AFWTR). Payload-class satellites include a variety of spacecraft equipped with specific instruments for various scientific and technological missions. These include communications satellites like Starlink; space stations such as the ISS; scientific satellites like the Hubble; Earth observation satellites from companies like Planet Labs, Umbra, and HawkEye 360; GPS; miniature CubeSats for education and research; and military/defense satellites.

Loading next visibility...
Identifier
60477, 2024-149K
Orbit
SSO
Country
Flag of UnknownUnknown / SING
Related business
Manufacturer
Satoro
Mission
Operational Commercial Technology
Bus & Motor
CUBESAT 3U, Unknown motor
Mass
4 kg wet, 4 kg dry
Launch date (UTC)
2024-08-16 (1 year ago)
Launch vehicle
FALCON 9
Launch site
Air Force Western Test Range (AFWTR)
Object type
Payload
Rocket body
Debris
Shape & HBR
Box, 0.1 m
Radar Cross Section
0.035 m², Medium (>0.1 m² and < 1m²)

Expand to show TLE details & history
Last TLE update: 18 hours ago

TLE from 18 hours ago
0 SATORO-T2
1 60477U 24149K   25286.91710069  .00073978  00000-0  14398-2 0  9991
2 60477  97.3963   8.2987 0000548  32.6745 327.4539 15.47314042 64724
Epoch: 2025-10-13T22:00Z
TLE epoch observation values (Epoch: 2025-10-13T22:00:37.499Z)
Latitude
-0.00001°
Longitude
15.42945°
Altitude
427.4 km
Speed
7.655 km/s
True Right ascension
00h 33m 11s
True Declination
0° 00' 00"
Sunlit
Object was in full shadow at epoch
Visualization orbit readout
Latitude
Unknown
Longitude
Unknown
Altitude
Unknown
Speed
Unknown
Apparent Right ascension
Unknown
Apparent Declination
Unknown
Sunlit
N/A
Visualization observer readout
Local Sidereal Time
10:41:28
Azimuth
Unknown
Elevation
Unknown
Doppler factor
Unknown
Orbital elements
Apogee altitude
421.889 km
Perigee altitude
421.144 km
Semi-major axis
6,799.653 km
Eccentricity
0.00005
Inclination
97.3963°
RAAN
8.2987°
Arg. of periapsis
32.6745°
True anomaly
327.45052°
Mean anomaly
327.4539°
Eccentric anomaly
327.45221°
Mean motion
3.87091 °/min
Orbital period
93 mins
BSTAR
0.0014398
Loading maneuver chart data...
Computing Atmospheric mass density...
Loading historical data...
Loading historical data...
Loading historical data...
Loading historical data...
Loading historical data...
Loading historical data...
Loading historical data...

Documentation

Showing up to 5 results
|